LXAIF ENHD-ENZV

Flight info

Callsign LXAIF
Flight time 0h 26m
Altitude 1500
Route ENHD DCT ENZV
Aircraft P28A/L-V/N

Departure

Time 2026-04-28 15:13
Airport Haugesund Airport, Karmøy (ENHD)

Arrival

Time 2026-04-28 15:39
Airport Stavanger Airport, Sola (ENZV)
Time Latitude Longitude Altitude Speed Heading
2026-04-28 15:02 59.34461 5.21351 108 ft 0 kts 286°
2026-04-28 15:08 59.34470 5.21349 83 ft 3 kts 50°
2026-04-28 15:09 59.34460 5.21386 83 ft 5 kts 135°
2026-04-28 15:09 59.34421 5.21436 81 ft 12 kts 185°
2026-04-28 15:09 59.34382 5.21373 82 ft 3 kts 224°
2026-04-28 15:09 59.34380 5.21369 82 ft 0 kts 222°
2026-04-28 15:11 59.34355 5.21321 81 ft 8 kts 227°
2026-04-28 15:11 59.34337 5.21217 80 ft 4 kts 308°
2026-04-28 15:11 59.34338 5.21216 80 ft 0 kts 311°
2026-04-28 15:12 59.34383 5.21124 74 ft 34 kts 315°
2026-04-28 15:12 59.34657 5.20561 166 ft 68 kts 313°
2026-04-28 15:12 59.34955 5.19835 452 ft 67 kts 308°
2026-04-28 15:13 59.35312 5.19279 725 ft 71 kts 345°
2026-04-28 15:13 59.35780 5.19707 933 ft 87 kts 51°
2026-04-28 15:13 59.35912 5.20921 1147 ft 96 kts 78°
2026-04-28 15:13 59.35993 5.22235 1429 ft 99 kts 81°
2026-04-28 15:14 59.36039 5.23714 1491 ft 113 kts 84°
2026-04-28 15:14 59.36045 5.25232 1566 ft 109 kts 87°
2026-04-28 15:14 59.36029 5.26747 1609 ft 115 kts 88°
2026-04-28 15:14 59.36065 5.28185 1823 ft 98 kts 70°
2026-04-28 15:15 59.36239 5.29614 1739 ft 111 kts 73°
2026-04-28 15:15 59.36350 5.30590 1747 ft 109 kts 76°
2026-04-28 15:15 59.36341 5.32085 1710 ft 122 kts 109°
2026-04-28 15:15 59.35819 5.33368 1662 ft 115 kts 135°
2026-04-28 15:16 59.35167 5.34277 1494 ft 117 kts 164°
2026-04-28 15:16 59.34414 5.34731 1476 ft 111 kts 168°
2026-04-28 15:16 59.33685 5.35119 1463 ft 106 kts 169°
2026-04-28 15:16 59.32968 5.35597 1415 ft 109 kts 162°
2026-04-28 15:17 59.32287 5.36162 1436 ft 108 kts 161°
2026-04-28 15:17 59.31632 5.36849 1450 ft 108 kts 148°
2026-04-28 15:17 59.31029 5.37684 1476 ft 102 kts 147°
2026-04-28 15:17 59.30436 5.38555 1399 ft 106 kts 145°
2026-04-28 15:18 59.29866 5.39423 1386 ft 106 kts 144°
2026-04-28 15:18 59.29296 5.40295 1405 ft 103 kts 144°
2026-04-28 15:18 59.28716 5.41187 1419 ft 106 kts 144°
2026-04-28 15:18 59.28141 5.42046 1511 ft 101 kts 144°
2026-04-28 15:19 59.27568 5.42883 1524 ft 107 kts 144°
2026-04-28 15:19 59.26980 5.43737 1581 ft 104 kts 145°
2026-04-28 15:19 59.26373 5.44623 1533 ft 110 kts 144°
2026-04-28 15:19 59.25745 5.45462 1511 ft 112 kts 152°
2026-04-28 15:20 59.25078 5.46171 1616 ft 105 kts 155°
2026-04-28 15:20 59.24430 5.46803 1680 ft 109 kts 157°
2026-04-28 15:20 59.23729 5.47353 1674 ft 110 kts 163°
2026-04-28 15:20 59.23018 5.47850 1708 ft 107 kts 165°
2026-04-28 15:21 59.22286 5.48363 1620 ft 113 kts 163°
2026-04-28 15:21 59.21557 5.48852 1564 ft 114 kts 165°
2026-04-28 15:21 59.20828 5.49329 1614 ft 105 kts 164°
2026-04-28 15:21 59.20118 5.49784 1588 ft 108 kts 163°
2026-04-28 15:22 59.19412 5.50218 1597 ft 107 kts 165°
2026-04-28 15:22 59.18696 5.50651 1587 ft 107 kts 165°
2026-04-28 15:22 59.17979 5.51084 1535 ft 110 kts 165°
2026-04-28 15:22 59.17235 5.51536 1485 ft 112 kts 165°
2026-04-28 15:23 59.16492 5.51989 1457 ft 110 kts 164°
2026-04-28 15:23 59.15771 5.52508 1387 ft 113 kts 160°
2026-04-28 15:23 59.15061 5.53083 1421 ft 107 kts 158°
2026-04-28 15:23 59.14364 5.53665 1395 ft 107 kts 158°
2026-04-28 15:24 59.13684 5.54240 1395 ft 107 kts 158°
2026-04-28 15:24 59.12986 5.54833 1329 ft 111 kts 158°
2026-04-28 15:24 59.12300 5.55427 1317 ft 109 kts 158°
2026-04-28 15:24 59.11610 5.56023 1311 ft 106 kts 157°
2026-04-28 15:25 59.10940 5.56586 1305 ft 106 kts 157°
2026-04-28 15:25 59.10257 5.57158 1307 ft 106 kts 158°
2026-04-28 15:25 59.09572 5.57746 1336 ft 109 kts 158°
2026-04-28 15:25 59.08907 5.58313 1410 ft 101 kts 158°
2026-04-28 15:26 59.08261 5.58848 1412 ft 100 kts 158°
2026-04-28 15:26 59.07599 5.59412 1372 ft 105 kts 158°
2026-04-28 15:26 59.06923 5.59982 1405 ft 104 kts 157°
2026-04-28 15:26 59.06278 5.60521 1449 ft 102 kts 158°
2026-04-28 15:27 59.05605 5.61092 1440 ft 106 kts 158°
2026-04-28 15:27 59.04939 5.61644 1453 ft 102 kts 158°
2026-04-28 15:27 59.04284 5.62202 1425 ft 103 kts 158°
2026-04-28 15:27 59.03621 5.62769 1427 ft 104 kts 157°
2026-04-28 15:28 59.02945 5.63322 1456 ft 106 kts 158°
2026-04-28 15:28 59.02288 5.63857 1507 ft 102 kts 158°
2026-04-28 15:28 59.01662 5.64617 1488 ft 106 kts 138°
2026-04-28 15:28 59.01110 5.65487 1524 ft 105 kts 140°
2026-04-28 15:29 59.00551 5.66376 1557 ft 105 kts 139°
2026-04-28 15:29 58.99966 5.67290 1533 ft 109 kts 140°
2026-04-28 15:29 58.99375 5.68209 1602 ft 109 kts 140°
2026-04-28 15:29 58.98782 5.69138 1624 ft 113 kts 139°
2026-04-28 15:30 58.98185 5.70076 1699 ft 105 kts 139°
2026-04-28 15:30 58.97587 5.71010 1606 ft 117 kts 140°
2026-04-28 15:30 58.96946 5.71928 1611 ft 115 kts 154°
2026-04-28 15:30 58.96175 5.72256 1552 ft 113 kts 179°
2026-04-28 15:31 58.95406 5.72303 1516 ft 109 kts 181°
2026-04-28 15:31 58.94641 5.72328 1499 ft 110 kts 183°
2026-04-28 15:31 58.93872 5.72319 1467 ft 112 kts 184°
2026-04-28 15:31 58.93097 5.72319 1461 ft 111 kts 184°
2026-04-28 15:32 58.92336 5.72333 1474 ft 105 kts 183°
2026-04-28 15:32 58.91629 5.72384 1527 ft 99 kts 180°
2026-04-28 15:32 58.90952 5.72436 1581 ft 97 kts 181°
2026-04-28 15:32 58.90268 5.72459 1569 ft 99 kts 184°
2026-04-28 15:33 58.89580 5.72488 1523 ft 98 kts 183°
2026-04-28 15:33 58.88905 5.72500 1517 ft 98 kts 184°
2026-04-28 15:33 58.88235 5.72462 1529 ft 98 kts 186°
2026-04-28 15:33 58.87560 5.72431 1567 ft 97 kts 184°
2026-04-28 15:34 58.86879 5.72384 1549 ft 97 kts 190°
2026-04-28 15:34 58.86193 5.72239 1478 ft 102 kts 193°
2026-04-28 15:34 58.85486 5.72047 1463 ft 101 kts 193°
2026-04-28 15:34 58.84790 5.71880 1466 ft 101 kts 192°
2026-04-28 15:35 58.84094 5.71747 1428 ft 101 kts 192°
2026-04-28 15:35 58.83088 5.70630 1405 ft 77 kts 259°
2026-04-28 15:35 58.83009 5.69616 1421 ft 77 kts 274°
2026-04-28 15:36 58.82976 5.68555 1367 ft 81 kts 273°
2026-04-28 15:36 58.82966 5.67471 1297 ft 79 kts 280°
2026-04-28 15:36 58.83208 5.66606 1261 ft 73 kts 318°
2026-04-28 15:36 58.83584 5.66031 1136 ft 70 kts 321°
2026-04-28 15:37 58.83956 5.65500 1096 ft 63 kts 322°
2026-04-28 15:37 58.84348 5.65099 1020 ft 66 kts 332°
2026-04-28 15:37 58.84786 5.64760 894 ft 69 kts 335°
2026-04-28 15:37 58.85223 5.64400 791 ft 67 kts 332°
2026-04-28 15:38 58.85669 5.64119 647 ft 69 kts 341°
2026-04-28 15:38 58.86144 5.63937 495 ft 69 kts 344°
2026-04-28 15:38 58.86595 5.63834 283 ft 63 kts 349°
2026-04-28 15:38 58.87000 5.63805 103 ft 58 kts 349°
2026-04-28 15:39 58.87386 5.63793 34 ft 52 kts 348°
2026-04-28 15:39 58.87673 5.63779 27 ft 35 kts
2026-04-28 15:39 58.87879 5.63778 26 ft 26 kts
2026-04-28 15:39 58.88041 5.63773 26 ft 20 kts
2026-04-28 15:40 58.88233 5.63764 25 ft 30 kts 358°
2026-04-28 15:40 58.88407 5.63752 24 ft 21 kts
2026-04-28 15:40 58.88540 5.63757 23 ft 19 kts
2026-04-28 15:40 58.88663 5.63751 22 ft 16 kts 355°
2026-04-28 15:41 58.88709 5.63633 22 ft 6 kts 271°
2026-04-28 15:41 58.88709 5.63578 23 ft 3 kts 268°
2026-04-28 15:41 58.88708 5.63520 25 ft 4 kts 267°
2026-04-28 15:41 58.88708 5.63483 25 ft 4 kts 264°
2026-04-28 15:42 58.88681 5.63417 25 ft 8 kts 173°
2026-04-28 15:42 58.88620 5.63420 25 ft 9 kts 179°
2026-04-28 15:42 58.88550 5.63423 25 ft 11 kts 178°
2026-04-28 15:42 58.88473 5.63418 24 ft 12 kts 199°
2026-04-28 15:43 58.88439 5.63303 23 ft 9 kts 258°
2026-04-28 15:43 58.88420 5.63177 21 ft 11 kts 266°
2026-04-28 15:43 58.88459 5.63068 19 ft 10 kts 315°
2026-04-28 15:43 58.88504 5.62982 18 ft 8 kts 314°
2026-04-28 15:44 58.88540 5.62915 18 ft 6 kts 330°
2026-04-28 15:44 58.88565 5.62885 18 ft 4 kts 327°
2026-04-28 15:44 58.88583 5.62859 19 ft 4 kts 318°
2026-04-28 15:44 58.88577 5.62813 18 ft 5 kts 221°
2026-04-28 15:45 58.88569 5.62771 18 ft 2 kts 256°
2026-04-28 15:45 58.88567 5.62758 18 ft 0 kts 253°